THORAD AGENA D DEB, 4990

Orbit data source: Space-Track

THORAD AGENA D DEB, 4990 is space debris in SSO originally from a launch on Wed, 08 Apr 1970 UTC launched from the Air Force Western Test Range (AFWTR). Debris objects in space refer to the collection of defunct objects orbiting the Earth. Examples of debris include non-operational satellites, rocket bodies, and fragments generated from explosions, collisions, or faulty payload assembly.

Loading next visibility...
Identifier
4990, 1970-025HL
Orbit
SSO
Country
Flag of USUS
Related business
Manufacturer
Unknown
Mission
Spacecraft
Bus & Motor
Unknown
Mass
Unknown
Launch date (UTC)
1970-04-08 (56 years ago)
Launch vehicle
Unknown
Launch site
Air Force Western Test Range (AFWTR)
Object type
Payload
Rocket body
Debris
Shape & HBR
Unknown shape, 0.1 m
Radar Cross Section
Small (<0.1 m²)

Expand to show TLE details & history
Last TLE update: 1 day ago

TLE from 1 day ago
0 THORAD AGENA D DEB
1  4990U 70025HL  25308.18667301  .00002741  00000-0  17564-2 0  9995
2  4990  99.9983  64.2474 0052088 315.3602  44.3372 14.03656880788862
Epoch: 2025-11-04T04:28Z
TLE epoch observation values (Epoch: 2025-11-04T04:28:48.548Z)
Latitude
-0.00007°
Longitude
-46.63218°
Altitude
857.055 km
Speed
7.438 km/s
True Right ascension
04h 16m 59s
True Declination
0° 00' 00"
Sunlit
Object was in full shadow at epoch
Visualization orbit readout
Latitude
Unknown
Longitude
Unknown
Altitude
Unknown
Speed
Unknown
Apparent Right ascension
Unknown
Apparent Declination
Unknown
Sunlit
N/A
Visualization observer readout
Local Sidereal Time
04:10:22
Azimuth
Unknown
Elevation
Unknown
Doppler factor
Unknown
Orbital elements
Apogee altitude
916.203 km
Perigee altitude
840.608 km
Semi-major axis
7,256.542 km
Eccentricity
0.00521
Inclination
99.9983°
RAAN
64.2474°
Arg. of periapsis
315.3602°
True anomaly
44.7563°
Mean anomaly
44.3372°
Eccentric anomaly
44.54655°
Mean motion
3.51114 °/min
Orbital period
102.53 mins
BSTAR
0.0017564
Loading maneuver chart data...
Computing Atmospheric mass density...

Documentation

Showing up to 5 results
|